This is the latest recevied weather packets stored in our database for station/object SK4BW-10. If no packets are shown the sender has not sent any weather packets the latest 10 day(s).
| Time | Temp. | Humidity | Pressure | Rain* | Wind** | Luminosity | Snow |
|---|---|---|---|---|---|---|---|
| 1777653494 | 20.56° C | 26% | 1015.1 hPa | - | - | - | - |
| 1777652593 | 21.11° C | 25% | 1015.2 hPa | - | - | - | - |
| 1777651692 | 21.11° C | 26% | 1015.2 hPa | - | - | - | - |
| 1777650791 | 21.67° C | 24% | 1015.3 hPa | - | - | - | - |
| 1777649890 | 21.11° C | 26% | 1015.6 hPa | - | - | - | - |
| 1777648990 | 21.11° C | 26% | 1015.7 hPa | - | - | - | - |
| 1777648089 | 21.67° C | 25% | 1015.9 hPa | - | - | - | - |
| 1777647189 | 21.67° C | 25% | 1015.9 hPa | - | - | - | - |
| 1777646288 | 21.67° C | 25% | 1016 hPa | - | - | - | - |
| 1777645387 | 21.67° C | 25% | 1016.3 hPa | - | - | - | - |
| 1777644487 | 21.67° C | 26% | 1016.4 hPa | - | - | - | - |
| 1777643586 | 21.67° C | 29% | 1016.6 hPa | - | - | - | - |
| 1777642684 | 21.67° C | 26% | 1016.8 hPa | - | - | - | - |
| 1777641784 | 21.67° C | 26% | 1017 hPa | - | - | - | - |
| 1777640883 | 21.67° C | 26% | 1017.1 hPa | - | - | - | - |
| 1777639982 | 21.67° C | 27% | 1017.3 hPa | - | - | - | - |
| 1777639081 | 21.11° C | 30% | 1017.5 hPa | - | - | - | - |
| 1777638179 | 21.11° C | 25% | 1017.5 hPa | - | - | - | - |
| 1777637278 | 20.56° C | 34% | 1017.6 hPa | - | - | - | - |
| 1777636377 | 20° C | 27% | 1017.7 hPa | - | - | - | - |
| 1777635476 | 20° C | 25% | 1017.8 hPa | - | - | - | - |
| 1777634576 | 20° C | 28% | 1018.1 hPa | - | - | - | - |
| 1777633675 | 18.89° C | 29% | 1018.2 hPa | - | - | - | - |
| 1777632775 | 18.89° C | 27% | 1018.2 hPa | - | - | - | - |
| 1777631874 | 18.33° C | 28% | 1018.5 hPa | - | - | - | - |
* Rain since midnight (hover to see other rain measurements)
** Current wind speed in m/s (hover to see current wind gust speed)